PI8ANH-13 Weather Reports


time (UTC)temp
F
wind
direction
speed
knots
gust
knots
rain 1hr
in
rain 24hr
in
rain mn
in
humidity
%
barometer
mb
20260506224457 48 350 6.1 0.0 0.00 0.00 0.00 81 1012.0
20260506222957 48 340 4.3 0.0 0.00 0.00 0.00 81 1012.0
20260506221458 48 340 4.3 0.0 0.00 0.00 0.00 81 1012.0
20260506215957 48 1.7 0.0 0.00 0.00 0.00 87 1012.0
20260506214458 48 1.7 0.0 0.00 0.00 0.00 87 1012.0
20260506212957 48 350 1.7 0.0 0.00 0.00 0.00 87 1012.0
20260506211457 48 350 1.7 0.0 0.00 0.00 0.00 87 1012.0
20260506205957 48 340 1.7 0.0 0.00 0.00 0.00 87 1011.0
20260506204457 48 340 1.7 0.0 0.00 0.00 0.00 87 1011.0
20260506202957 48 310 0.9 0.0 0.00 0.00 0.00 81 1011.0
20260506201458 48 310 0.9 0.0 0.00 0.00 0.00 81 1011.0
20260506195958 50 330 2.6 0.0 0.00 0.00 0.00 82 1011.0
20260506194458 50 330 2.6 0.0 0.00 0.00 0.00 82 1011.0
20260506192957 50 20 2.6 0.0 0.00 0.00 0.00 76 1011.0
20260506191457 50 20 2.6 0.0 0.00 0.00 0.00 76 1011.0
20260506185957 52 20 2.6 0.0 0.00 0.00 0.00 67 1010.0
20260506184457 52 20 2.6 0.0 0.00 0.00 0.00 67 1010.0
20260506182958 52 20 5.2 0.0 0.00 0.00 0.00 67 1010.0
20260506181457 52 20 5.2 0.0 0.00 0.00 0.00 67 1010.0
20260506175957 52 30 7.0 0.0 0.00 0.00 0.00 62 1010.0
20260506174457 52 30 7.0 0.0 0.00 0.00 0.00 62 1010.0
20260506172957 52 10 7.0 0.0 0.00 0.00 0.00 67 1010.0
20260506171458 52 10 7.0 0.0 0.00 0.00 0.00 67 1010.0
20260506165958 52 20 7.0 0.0 0.00 0.00 0.00 67 1010.0
20260506164458 52 20 7.0 0.0 0.00 0.00 0.00 67 1010.0
20260506162958 52 30 8.7 0.0 0.00 0.00 0.00 62 1010.0
20260506161458 52 30 8.7 0.0 0.00 0.00 0.00 62 1010.0
20260506155958 52 40 7.8 0.0 0.00 0.00 0.00 67 1009.0
20260506154458 52 40 7.8 0.0 0.00 0.00 0.00 67 1009.0
20260506152957 52 40 12.2 21.7 0.00 0.00 0.00 67 1009.0
20260506151458 52 40 12.2 21.7 0.00 0.00 0.00 67 1009.0
20260506145958 52 40 13.0 0.0 0.00 0.00 0.00 71 1009.0
20260506144457 52 40 13.0 0.0 0.00 0.00 0.00 71 1009.0
20260506142957 52 50 11.3 0.0 0.00 0.00 0.00 71 1009.0
20260506141457 52 50 11.3 0.0 0.00 0.00 0.00 71 1009.0
20260506135958 52 30 11.3 0.0 0.00 0.00 0.00 71 1009.0
20260506134457 52 30 11.3 0.0 0.00 0.00 0.00 71 1009.0
20260506132957 52 20 12.2 0.0 0.00 0.00 0.00 67 1009.0
20260506131457 52 20 12.2 0.0 0.00 0.00 0.00 67 1009.0
20260506125958 52 360 10.4 0.0 0.00 0.00 0.00 67 1009.0
20260506124458 52 360 10.4 0.0 0.00 0.00 0.00 67 1009.0
20260506122957 52 10 13.0 0.0 0.00 0.00 0.00 67 1009.0
20260506121458 52 10 13.0 0.0 0.00 0.00 0.00 67 1009.0
20260506115958 52 10 15.6 0.0 0.00 0.00 0.00 62 1009.0
20260506114458 52 10 15.6 0.0 0.00 0.00 0.00 62 1009.0
20260506112957 52 20 13.9 0.0 0.00 0.00 0.00 62 1009.0
20260506111458 52 20 13.9 0.0 0.00 0.00 0.00 62 1009.0
20260506105958 52 10 13.9 0.0 0.00 0.00 0.00 67 1008.0
20260506104458 52 10 13.9 0.0 0.00 0.00 0.00 67 1008.0
20260506102958 50 20 10.4 0.0 0.00 0.00 0.00 71 1008.0
20260506101458 50 20 10.4 0.0 0.00 0.00 0.00 71 1008.0
20260506095957 52 10 11.3 0.0 0.00 0.00 0.00 67 1008.0
20260506094457 52 10 11.3 0.0 0.00 0.00 0.00 67 1008.0
20260506092957 50 20 10.4 0.0 0.00 0.00 0.00 66 1008.0
20260506091457 50 20 10.4 0.0 0.00 0.00 0.00 66 1008.0
20260506085957 50 30 10.4 0.0 0.00 0.00 0.00 71 1008.0
20260506084457 50 30 10.4 0.0 0.00 0.00 0.00 71 1008.0
20260506082958 50 30 11.3 0.0 0.00 0.00 0.00 82 1008.0
20260506081457 50 30 11.3 0.0 0.00 0.00 0.00 82 1008.0
20260506072957 50 10 8.7 0.0 0.00 0.00 0.00 82 1007.0
20260506071457 50 10 8.7 0.0 0.00 0.00 0.00 82 1007.0
20260506061458 48 350 6.1 0.0 0.00 0.00 0.00 87 1007.0
20260506044457 48 350 7.0 0.0 0.00 0.00 0.00 87 1007.0
20260506042957 48 350 7.0 0.0 0.00 0.00 0.00 87 1007.0
20260506041457 48 350 7.0 0.0 0.00 0.00 0.00 87 1007.0
20260506035958 46 350 6.1 0.0 0.00 0.00 0.00 93 1007.0
20260506034457 46 350 6.1 0.0 0.00 0.00 0.00 93 1007.0
20260506032957 46 360 7.8 0.0 0.00 0.00 0.00 93 1008.0
20260506031458 46 360 7.8 0.0 0.00 0.00 0.00 93 1008.0
20260506025957 46 360 8.7 0.0 0.00 0.00 0.00 93 1008.0
20260506024458 46 360 8.7 0.0 0.00 0.00 0.00 93 1008.0
20260506022958 46 360 7.8 0.0 0.00 0.00 0.00 93 1008.0
20260506021458 46 360 7.8 0.0 0.00 0.00 0.00 93 1008.0
20260506015958 46 360 7.8 0.0 0.00 0.00 0.00 93 1008.0
20260506014457 46 360 7.8 0.0 0.00 0.00 0.00 93 1008.0
20260506012957 46 360 11.3 0.0 0.00 0.00 0.00 87 1008.0
20260506011457 46 360 11.3 0.0 0.00 0.00 0.00 87 1008.0
20260506005957 48 10 10.4 0.0 0.00 0.00 0.00 81 1008.0
20260506004457 48 10 10.4 0.0 0.00 0.00 0.00 81 1008.0
20260506002957 48 10 11.3 0.0 0.00 0.00 0.00 87 1009.0
20260506001457 48 10 11.3 0.0 0.00 0.00 0.00 87 1009.0
20260505235957 48 10 11.3 0.0 0.00 0.00 0.00 87 1009.0
20260505234458 48 10 11.3 0.0 0.00 0.00 0.00 87 1009.0
20260505232958 48 360 10.4 0.0 0.00 0.00 0.00 81 1009.0
20260505231457 48 360 10.4 0.0 0.00 0.00 0.00 81 1009.0
20260505225958 50 10 10.4 0.0 0.00 0.00 0.00 76 1009.0